This demonstration page uses our WeatherBlox Daily Observations layout. Learn more.

Left ArrowRight Arrow

Hourly Observations for October 6, 2021

Temp ( °F °C ) Dew Point ( °F °C ) Humidity (%) Winds ( mph kmh ) Pressure ( in mb ) Visibility ( mi km ) Precip ( " mm )
12:56 am 00:56 Clear 51 10.6 44 6.7 77 77 N N/A 30.16 1021 10 16 N/A
1:56 am 01:56 Clear 52 11.1 45 7.2 77 77 N N/A 30.16 1021 10 16 N/A
2:56 am 02:56 Clear 48 8.9 44 6.7 86 86 N N/A 30.16 1021 10 16 N/A
3:56 am 03:56 Clear 48 8.9 44 6.7 86 86 N N/A 30.16 1021 10 16 N/A
4:56 am 04:56 Clear 47 8.3 44 6.7 90 90 S 3 6 30.15 1021 10 16 N/A
5:56 am 05:56 Clear 46 7.8 44 6.7 93 93 N N/A 30.16 1021 10 16 N/A
6:56 am 06:56 Clear 44 6.7 43 6.1 96 96 ESE 6 9 30.17 1022 9 14 N/A
7:56 am 07:56 Sunny with Mist and Fog 44 6.7 43 6.1 96 96 E 5 7 30.18 1022 6 10 N/A
8:56 am 08:56 Sunny 52 11.1 50 10 93 93 N N/A 30.17 1022 8 13 N/A
9:56 am 09:56 Sunny 58 14.4 54 12.2 87 87 SSE 7 11 30.18 1022 10 16 N/A
10:56 am 10:56 Sunny 65 18.3 56 13.3 73 73 SE 10 17 30.16 1021 10 16 N/A
11:56 am 11:56 Sunny 70 21.1 55 12.8 59 59 SSE 13 20 30.13 1020 10 16 N/A
12:56 pm 12:56 Partly Cloudy 72 22.2 54 12.2 53 53 SSE 10 17 30.11 1020 10 16 N/A
1:56 pm 13:56 Mostly Sunny 74 23.3 53 11.7 48 48 SSE 13 20 30.08 1019 10 16 N/A
2:56 pm 14:56 Partly Cloudy 74 23.3 53 11.7 48 48 SSE 14 22 30.06 1018 10 16 N/A
3:56 pm 15:56 Sunny 75 23.9 52 11.1 45 45 SSE 15 24 30.04 1017 10 16 N/A
4:56 pm 16:56 Sunny 74 23.3 51 10.6 45 45 SSE 13 20 30.02 1017 10 16 N/A
5:56 pm 17:56 Sunny 73 22.8 52 11.1 48 48 SE 15 24 30.01 1016 10 16 N/A
6:56 pm 18:56 Sunny 68 20 52 11.1 57 57 SSE 8 13 30.04 1017 10 16 N/A
7:56 pm 19:56 Clear 63 17.2 53 11.7 70 70 SE 9 15 30.05 1018 10 16 N/A
8:56 pm 20:56 Clear 60 15.6 53 11.7 78 78 SE 8 13 30.05 1018 10 16 N/A
9:56 pm 21:56 Clear 59 15 53 11.7 81 81 SE 8 13 30.04 1017 10 16 N/A
10:56 pm 22:56 Clear 57 13.9 52 11.1 83 83 SE 8 13 30.04 1017 10 16 N/A
11:56 pm 23:56 Clear 55 12.8 51 10.6 87 87 SE 8 13 30.04 1017 10 16 N/A

Powered by AerisWeather